Location: Newark
(34.0131°N, 4.3314°W)
Time: 08:47:17
(UTC+00:00)

SR - Pass Details

Date: 22 October 2019
Orbit: 574 x 882 km, 66.7° (Epoch: 14 November)

Event Time Altitude Azimuth Distance (km) Brightness Sun altitude
Rises 08:51:59 0° 307° (NW) 3,483 ? 26.3°
Reaches altitude 10° 08:56:39 10° 274° (W) 2,527 ? 27.1°
Maximum altitude 08:58:11 11° 259° (W) 2,442 ? 27.3°
Drops below altitude 10° 08:59:42 10° 244° (WSW) 2,502 ? 27.6°
Sets 09:04:16 0° 210° (SSW) 3,381 ? 28.3°
